Location: Saint-Hippolyte
(43.6394°N, 4.7559°E)
Time: 15:51:33
(UTC+00:00)

Cosmos 1758 Rocket - Pass Details

Date: 24 October 2020
Orbit: 601 x 637 km, 82.5° (Epoch: 24 November)

Event Time Altitude Azimuth Distance (km) Brightness Sun altitude
Rises 17:39:38 0° 348° (NNW) 2,916 7.1 -10.9°
Reaches altitude 10° 17:41:54 10° 346° (NNW) 1,999 6.3 -11.3°
Maximum altitude 17:46:17 67° 265° (W) 671 4.0 -12.1°
Drops below altitude 10° 17:50:35 10° 183° (S) 1,960 6.2 -12.9°
Sets 17:52:47 0° 180° (S) 2,855 7.0 -13.3°
